Meteor 1-21 - Orbit

View from above orbital plane
View from above orbital plane
View from above satellite
View from above satellite

Ground track
Ground track

The orbit data is extracted from the following two-line orbital elements,

1 07714U 75023A   13139.49085201  .00000119  00000-0  62655-4 0  5403
2 07714 081.2083 201.9581 0037022 135.1946 307.8351 14.07716334275582
Epoch (UTC): 19 May 2013 11:46:49
Eccentricity: 0.0037022
inclination: 81.2083°
perigee height: 840 km
apogee height: 894 km
right ascension of ascending node: 201.9581°
argument of perigee: 135.1946°
revolutions per day: 14.07716334
mean anomaly at epoch: 307.8351°
orbit number at epoch: 27558

The dashed part of the orbit path shows where the satellite is in the earth's shadow,  

Developed and maintained by Chris Peat, Heavens-Above GmbH. Please read the updated FAQ before sending e-mail. Imprint. DLR